Iron Mountain, MI

12:58 AM CDT on October 01, 2016 (GMT -0500)
Ford

Weather History for KIMT - April, 2014

Change the Weather History Date:

Friday, April 4, 2014

  Actual Average Record
Temperature  
Mean Temperature 30 °F -  
Max Temperature 30 °F 45 °F 69 °F (1988)
Min Temperature 25 °F 23 °F 1 °F (1954)
Degree Days  
Heating Degree Days 36    
Moisture  
Dew Point 26 °F    
Average Humidity 86    
Maximum Humidity 93    
Minimum Humidity 60    
Precipitation  
Precipitation 0.30 in - - ()
Sea Level Pressure  
Sea Level Pressure 29.64 in    
Wind  
Wind Speed 10 mph (NNE)    
Max Wind Speed 25 mph    
Max Gust Speed 34 mph    
Visibility 3 miles    
Events Fog , Rain , Snow    
Averages and records for this station are not official NWS values.
T = Trace of Precipitation, MM = Missing Value Source: NWS Daily Summary

Daily Weather History Graph

Daily Weather History Graph

Search for Another Location

Airport or City:

Trip Planner

Search our weather history database for the weather conditions in past years. The results will help you decide how hot, cold, wet, or windy it might be!

Date:

Astronomy

Apr. 04, 2014 Rise Set
Actual Time 6:26 AM CDT 7:24 PM CDT
Civil Twilight 5:56 AM CDT 7:55 PM CDT
Nautical Twilight 5:20 AM CDT 8:31 PM CDT
Astronomical Twilight 4:42 AM CDT 9:09 PM CDT
Moon 9:32 AM CDT (4/4) No Moon Set
Length of Visible Light 13h 58m
Length of Day
12h 58m
Waxing Crescent, 25% of the Moon is Illuminated
Apr 4
Waxing Crescent
Apr 7
First Quarter
Apr 15
Full
Apr 22
Last Quarter
Apr 29
New

Hourly Weather History & Observations

Time (CDT) Temp. Windchill Dew Point Humidity Pressure Visibility Wind Dir Wind Speed Gust Speed Precip Events Conditions
12:06 AM 33.8 °F 27.7 °F 21.2 °F 60% 29.82 in 10.0 mi East 6.9 mph 17.3 mph N/A   Overcast
12:31 AM 30.2 °F 24.3 °F 24.8 °F 80% 29.80 in 4.0 mi East 5.8 mph 16.1 mph 0.00 in Rain Light Freezing Rain
12:54 AM 30.9 °F 22.2 °F 27.0 °F 85% 29.82 in 2.5 mi ENE 10.4 mph - 0.00 in Rain Light Freezing Rain
1:01 AM 30.2 °F 24.3 °F 26.6 °F 86% 29.78 in 3.0 mi Variable 5.8 mph - 0.00 in Rain Light Freezing Rain
1:22 AM 30.2 °F 22.6 °F 26.6 °F 86% 29.75 in 2.5 mi ENE 8.1 mph - 0.00 in Rain Light Freezing Rain
1:27 AM 30.2 °F 24.3 °F 26.6 °F 86% 29.75 in 3.0 mi East 5.8 mph - 0.00 in Rain Light Freezing Rain
1:54 AM 30.0 °F 23.2 °F 27.0 °F 88% 29.81 in 4.0 mi East 6.9 mph - 0.00 in Rain Light Freezing Rain
2:09 AM 30.2 °F 24.3 °F 26.6 °F 86% 29.75 in 2.5 mi ENE 5.8 mph - 0.01 in Rain Light Freezing Rain
2:16 AM 30.2 °F 24.3 °F 26.6 °F 86% 29.75 in 2.0 mi NE 5.8 mph - 0.02 in Rain Light Freezing Rain
2:22 AM 30.2 °F 24.3 °F 26.6 °F 86% 29.74 in 3.0 mi ENE 5.8 mph - 0.03 in Rain Light Freezing Rain
2:29 AM 30.2 °F 23.4 °F 26.6 °F 86% 29.72 in 4.0 mi ENE 6.9 mph - 0.03 in Rain Light Freezing Rain
2:43 AM 30.2 °F 21.3 °F 26.6 °F 86% 29.70 in 2.5 mi ENE 10.4 mph - 0.05 in   Overcast
2:54 AM 30.0 °F 22.4 °F 27.0 °F 88% 29.75 in 2.5 mi ENE 8.1 mph - 0.07 in Rain Light Freezing Rain
3:16 AM 30.2 °F 22.6 °F 26.6 °F 86% 29.68 in 4.0 mi ENE 8.1 mph - 0.04 in Rain Light Freezing Rain
3:24 AM 30.2 °F 23.4 °F 26.6 °F 86% 29.68 in 5.0 mi Variable 6.9 mph - 0.04 in Rain Light Freezing Rain
3:54 AM 30.9 °F 23.5 °F 27.0 °F 85% 29.70 in 8.0 mi East 8.1 mph - 0.05 in Rain Light Freezing Rain
4:01 AM 30.2 °F 24.3 °F 26.6 °F 86% 29.66 in 5.0 mi East 5.8 mph - 0.00 in   Overcast
4:08 AM 30.2 °F 23.4 °F 26.6 °F 86% 29.67 in 5.0 mi East 6.9 mph - 0.00 in Rain Light Freezing Rain
4:32 AM 30.2 °F 22.6 °F 28.4 °F 93% 29.64 in 4.0 mi ENE 8.1 mph - 0.03 in Rain Light Freezing Rain
4:39 AM 30.2 °F 21.3 °F 26.6 °F 86% 29.61 in 4.0 mi ENE 10.4 mph - 0.03 in Rain Light Freezing Rain
4:47 AM 30.2 °F 25.4 °F 26.6 °F 86% 29.62 in 4.0 mi Variable 4.6 mph - 0.04 in Rain Light Freezing Rain
4:54 AM 30.9 °F 24.3 °F 28.0 °F 89% 29.65 in 4.0 mi Variable 6.9 mph - 0.04 in Rain Light Freezing Rain
5:13 AM 30.2 °F 22.6 °F 26.6 °F 86% 29.59 in 10.0 mi ENE 8.1 mph - 0.00 in   Overcast
5:54 AM 30.9 °F 24.3 °F 28.0 °F 89% 29.63 in 8.0 mi NE 6.9 mph - 0.00 in   Overcast
6:01 AM 30.2 °F 25.4 °F 28.4 °F 93% 29.60 in 6.0 mi Variable 4.6 mph - N/A   Overcast
6:19 AM 30.2 °F 25.4 °F 28.4 °F 93% 29.59 in 2.0 mi NNE 4.6 mph - 0.00 in Rain Light Freezing Rain
6:28 AM 30.2 °F 23.4 °F 28.4 °F 93% 29.58 in 1.8 mi Variable 6.9 mph - 0.00 in Rain Light Freezing Rain
6:41 AM 30.2 °F 22.6 °F 28.4 °F 93% 29.56 in 2.0 mi ENE 8.1 mph - 0.00 in Rain Light Freezing Rain
6:54 AM 30.9 °F 25.2 °F 28.0 °F 89% 29.60 in 2.0 mi NE 5.8 mph - 0.00 in Rain Light Freezing Rain
7:09 AM 30.2 °F 23.4 °F 28.4 °F 93% 29.56 in 1.5 mi ENE 6.9 mph - 0.00 in Rain Light Freezing Rain
7:33 AM 30.2 °F 21.9 °F 28.4 °F 93% 29.57 in 2.0 mi North 9.2 mph - 0.00 in Rain Light Freezing Rain
7:36 AM 30.2 °F 21.3 °F 28.4 °F 93% 29.57 in 1.8 mi North 10.4 mph - 0.00 in Snow Light Snow
7:49 AM 30.2 °F 20.8 °F 28.4 °F 93% 29.57 in 0.5 mi North 11.5 mph - 0.00 in Fog , Snow Light Snow
7:54 AM 30.0 °F 21.1 °F 28.0 °F 92% 29.60 in 0.2 mi North 10.4 mph - 0.00 in Fog , Snow Light Snow
8:15 AM 30.2 °F 20.8 °F 28.4 °F 93% 29.55 in 0.5 mi North 11.5 mph - 0.01 in Fog , Snow Light Snow
8:54 AM 30.0 °F 21.1 °F 28.0 °F 92% 29.61 in 0.2 mi North 10.4 mph - 0.05 in Fog , Snow Snow
9:20 AM 30.2 °F 22.6 °F 28.4 °F 93% 29.55 in 0.2 mi North 8.1 mph - 0.05 in Fog , Snow Heavy Snow
9:39 AM 30.2 °F 20.2 °F 28.4 °F 93% 29.52 in 0.2 mi NNE 12.7 mph 19.6 mph 0.07 in Fog , Snow Snow
9:54 AM 30.0 °F 19.1 °F 28.0 °F 92% 29.57 in 0.2 mi North 15.0 mph 19.6 mph 0.07 in Fog , Snow Heavy Snow
10:27 AM 30.2 °F 21.3 °F 28.4 °F 93% 29.49 in 0.5 mi NNE 10.4 mph 17.3 mph 0.01 in Fog , Snow Snow
10:40 AM 30.2 °F 20.8 °F 26.6 °F 86% 29.50 in 1.0 mi NE 11.5 mph - 0.01 in Snow Light Snow
10:51 AM 30.2 °F 21.9 °F 26.6 °F 86% 29.49 in 3.0 mi North 9.2 mph 17.3 mph 0.01 in Snow Light Snow
10:54 AM 30.9 °F 24.3 °F 27.0 °F 85% 29.55 in 4.0 mi Variable 6.9 mph 17.3 mph 0.01 in Snow Light Snow
11:54 AM 30.9 °F 23.5 °F 27.0 °F 85% 29.53 in 5.0 mi North 8.1 mph 18.4 mph 0.00 in   Overcast
12:54 PM 30.9 °F 21.7 °F 26.1 °F 82% 29.55 in 10.0 mi North 11.5 mph - N/A   Overcast
1:54 PM 30.9 °F 20.2 °F 26.1 °F 82% 29.54 in 8.0 mi North 15.0 mph 21.9 mph 0.00 in Snow Light Snow
2:43 PM 30.2 °F 19.8 °F 26.6 °F 86% 29.51 in 9.0 mi NNW 13.8 mph - 0.00 in   Overcast
2:50 PM 30.2 °F 21.3 °F 26.6 °F 86% 29.52 in 9.0 mi NNW 10.4 mph - 0.00 in   Overcast
2:54 PM 30.9 °F 22.2 °F 27.0 °F 85% 29.56 in 9.0 mi NW 10.4 mph - 0.00 in   Overcast
3:24 PM 30.2 °F 18.5 °F 26.6 °F 86% 29.53 in 1.8 mi NNW 17.3 mph 25.3 mph 0.00 in Snow Light Snow
3:36 PM 30.2 °F 18.5 °F 24.8 °F 80% 29.54 in 2.0 mi NNW 17.3 mph 26.5 mph 0.00 in Snow Light Snow
3:49 PM 30.2 °F 17.1 °F 24.8 °F 80% 29.55 in 1.0 mi NW 21.9 mph 33.4 mph 0.00 in Snow Light Snow
3:54 PM 28.9 °F 15.4 °F 25.0 °F 85% 29.60 in 1.0 mi NW 21.9 mph 33.4 mph 0.00 in Snow Light Snow
4:02 PM 28.4 °F 15.4 °F 24.8 °F 86% 29.55 in 0.8 mi NNW 19.6 mph 27.6 mph 0.00 in Snow Light Snow
4:13 PM 28.4 °F 14.1 °F 24.8 °F 86% 29.56 in 0.5 mi NNW 24.2 mph 32.2 mph 0.00 in Snow Snow
4:54 PM 28.0 °F 16.5 °F 24.1 °F 85% 29.63 in 0.5 mi NNW 15.0 mph - 0.00 in Fog , Snow Snow
5:03 PM 28.4 °F 19.1 °F 24.8 °F 86% 29.59 in 0.2 mi NNW 10.4 mph - 0.00 in Fog , Snow Heavy Snow
5:34 PM 28.4 °F 16.6 °F 24.8 °F 86% 29.61 in 0.5 mi NNW 16.1 mph 24.2 mph 0.00 in Fog , Snow Light Snow
5:47 PM 28.4 °F 15.1 °F 23.0 °F 80% 29.62 in 1.0 mi NW 20.7 mph 27.6 mph 0.00 in Snow Light Snow
5:54 PM 28.0 °F 14.3 °F 23.0 °F 81% 29.67 in 1.0 mi NW 21.9 mph 29.9 mph 0.00 in Snow Light Snow
6:08 PM 26.6 °F 13.4 °F 23.0 °F 86% 29.63 in 2.0 mi NNW 18.4 mph 27.6 mph 0.00 in Snow Light Snow
6:17 PM 26.6 °F 12.4 °F 21.2 °F 80% 29.64 in 1.5 mi NW 21.9 mph 29.9 mph 0.00 in Snow Light Snow
6:43 PM 26.6 °F 11.4 °F 21.2 °F 80% 29.66 in 0.5 mi NNW 25.3 mph 34.5 mph 0.00 in Fog , Snow Light Snow
6:54 PM 26.1 °F 12.0 °F 21.9 °F 84% 29.72 in 0.5 mi NW 20.7 mph 31.1 mph 0.00 in Fog , Snow Light Snow
7:35 PM 26.6 °F 14.7 °F 21.2 °F 80% 29.70 in 1.8 mi NNW 15.0 mph 26.5 mph 0.01 in Snow Light Snow
7:54 PM 26.1 °F 13.1 °F 21.9 °F 84% 29.76 in 1.8 mi NW 17.3 mph 25.3 mph 0.01 in Snow Light Snow
8:01 PM 26.6 °F 13.4 °F 21.2 °F 80% 29.72 in 2.5 mi NNW 18.4 mph - 0.00 in Snow Light Snow
8:08 PM 26.6 °F 13.1 °F 21.2 °F 80% 29.72 in 3.0 mi NNW 19.6 mph 26.5 mph 0.00 in Snow Light Snow
8:54 PM 27.0 °F 14.3 °F 21.0 °F 78% 29.80 in 9.0 mi NNW 17.3 mph 29.9 mph 0.00 in   Overcast
9:54 PM 27.0 °F 14.7 °F 21.0 °F 78% 29.83 in 6.0 mi NNW 16.1 mph 29.9 mph 0.00 in   Overcast
10:54 PM 26.1 °F 14.5 °F 19.9 °F 78% 29.87 in 10.0 mi NNW 13.8 mph 24.2 mph 0.00 in   Mostly Cloudy
11:54 PM 25.0 °F 13.6 °F 19.0 °F 78% 29.89 in 10.0 mi NW 12.7 mph - 0.00 in   Mostly Cloudy